K9UO Weather Reports


Display with metric or nautical units.
time (UTC)temp
F
wind
direction
speed
MPH
gust
MPH
rain 1hr
in
rain 24hr
in
rain mn
in
humidity
%
barometer
mb
20260901032506 78 202 0.0 2.0 0.00 0.00 0.00 80 1017.5
20260901032007 78 203 0.0 2.0 0.00 0.00 0.00 80 1017.5
20260901031523 78 203 0.0 2.0 0.00 0.00 0.00 80 1017.7
20260901031004 78 203 0.0 2.0 0.00 0.00 0.00 80 1017.8
20260901030503 78 203 0.0 4.0 0.00 0.00 0.00 80 1017.8
20260901030012 78 199 2.0 4.0 0.00 0.00 0.00 81 1017.5
20260901025505 77 206 2.0 4.0 0.00 0.00 0.00 81 1017.4
20260901025009 78 207 2.0 5.0 0.00 0.00 0.00 81 1017.3
20260901024510 78 198 2.0 8.0 0.00 0.00 0.00 80 1017.2
20260901024006 78 203 3.0 8.0 0.00 0.00 0.00 79 1017.3
20260901023504 78 178 2.0 6.0 0.00 0.00 0.00 79 1017.3
20260901023019 78 166 1.0 3.0 0.00 0.00 0.00 79 1017.3
20260901022505 78 144 2.0 3.0 0.00 0.00 0.00 79 1017.5
20260901022008 78 146 2.0 3.0 0.00 0.00 0.00 79 1017.5
20260901021514 78 141 2.0 3.0 0.00 0.00 0.00 80 1017.6
20260901021007 78 147 1.0 3.0 0.00 0.00 0.00 80 1017.6
20260901020511 78 161 1.0 3.0 0.00 0.00 0.00 81 1017.5
20260901020014 77 167 1.0 3.0 0.00 0.00 0.00 81 1017.6
20260901015507 77 140 1.0 2.0 0.00 0.00 0.00 81 1017.6
20260901015012 76 202 0.0 2.0 0.00 0.00 0.00 82 1017.6
20260901014515 76 202 0.0 2.0 0.00 0.00 0.00 82 1017.6
20260901014006 77 204 0.0 3.0 0.00 0.00 0.00 80 1017.5
20260901013509 77 204 1.0 3.0 0.00 0.00 0.00 80 1017.5
20260901013033 78 187 0.0 3.0 0.00 0.00 0.00 79 1017.5
20260901012503 78 143 0.0 3.0 0.00 0.00 0.00 78 1017.5
20260901012007 78 142 1.0 3.0 0.00 0.00 0.00 78 1017.3
20260901011523 78 142 1.0 3.0 0.00 0.00 0.00 78 1017.3
20260901011006 78 146 1.0 2.0 0.00 0.00 0.00 78 1017.4
20260901010504 78 146 0.0 0.0 0.00 0.00 0.00 78 1017.4
20260901010015 79 146 0.0 2.0 0.00 0.00 0.00 79 1017.4
20260901005508 79 146 0.0 2.0 0.00 0.00 0.00 77 1017.3
20260901005006 79 146 1.0 2.0 0.00 0.00 0.00 77 1017.1
20260901004516 79 146 1.0 2.0 0.00 0.00 0.00 77 1017.1
20260901004008 79 146 1.0 2.0 0.00 0.00 0.00 77 1017.1
20260901003505 79 146 1.0 2.0 0.00 0.00 0.00 77 1017.1
20260901003015 79 146 2.0 2.0 0.00 0.00 0.00 77 1017.2
20260901002508 79 146 1.0 2.0 0.00 0.00 0.00 77 1017.2
20260901002008 80 146 2.0 2.0 0.00 0.00 0.00 77 1017.1
20260901001515 80 156 2.0 2.0 0.00 0.00 0.00 76 1017.0
20260901001008 81 162 1.0 2.0 0.00 0.00 0.00 75 1017.1
20260901000508 81 194 1.0 1.0 0.00 0.00 0.00 74 1017.0
20260901000018 81 194 1.0 2.0 0.00 0.00 0.00 73 1017.0
20260831235508 82 194 1.0 2.0 0.00 0.00 0.00 72 1016.8
20260831235007 82 194 1.0 1.0 0.00 0.00 0.00 72 1016.9
20260831234519 83 194 0.0 1.0 0.00 0.00 0.00 72 1017.0
20260831234008 83 194 0.0 2.0 0.00 0.00 0.00 71 1017.1
20260831233513 83 194 0.0 2.0 0.00 0.00 0.00 71 1016.9
20260831233015 84 194 0.0 2.0 0.00 0.00 0.00 70 1016.9
20260831232510 84 194 0.0 2.0 0.00 0.00 0.00 68 1017.0
20260831232011 84 194 0.0 2.0 0.00 0.00 0.00 68 1017.1
20260831231517 85 194 0.0 2.0 0.00 0.00 0.00 67 1016.9
20260831231009 85 194 0.0 4.0 0.00 0.00 0.00 67 1016.8
20260831230510 85 186 1.0 3.0 0.00 0.00 0.00 66 1016.8
20260831230019 86 213 1.0 4.0 0.00 0.00 0.00 66 1016.7
20260831225512 86 203 2.0 4.0 0.00 0.00 0.00 65 1016.6
20260831225010 86 198 1.0 4.0 0.00 0.00 0.00 65 1016.4
20260831224520 86 203 2.0 4.0 0.00 0.00 0.00 64 1016.4
20260831224008 86 182 2.0 7.0 0.00 0.00 0.00 64 1016.5
20260831223509 86 205 2.0 7.0 0.00 0.00 0.00 64 1016.6
20260831223018 87 213 3.0 5.0 0.00 0.00 0.00 63 1016.7
20260831222510 87 198 2.0 5.0 0.00 0.00 0.00 63 1016.6
20260831222011 88 225 1.0 4.0 0.00 0.00 0.00 63 1016.6
20260831221517 88 211 2.0 8.0 0.00 0.00 0.00 62 1016.5
20260831221012 88 213 2.0 8.0 0.00 0.00 0.00 63 1016.6
20260831220512 88 203 3.0 6.0 0.00 0.00 0.00 60 1016.6
20260831220022 88 184 3.0 8.0 0.00 0.00 0.00 61 1016.5
20260831215508 88 221 4.0 8.0 0.00 0.00 0.00 60 1016.4
20260831215009 88 201 4.0 7.0 0.00 0.00 0.00 60 1016.5
20260831214524 88 225 3.0 8.0 0.00 0.00 0.00 61 1016.5
20260831214009 88 219 3.0 8.0 0.00 0.00 0.00 61 1016.7
20260831213510 88 219 3.0 10.0 0.00 0.00 0.00 59 1016.7
20260831213022 89 197 2.0 10.0 0.00 0.00 0.00 58 1016.6
20260831212510 89 217 3.0 9.0 0.00 0.00 0.00 58 1016.6
20260831212010 89 209 5.0 9.0 0.00 0.00 0.00 57 1016.6
20260831211521 89 169 4.0 9.0 0.00 0.00 0.00 56 1016.5
20260831211007 89 205 4.0 10.0 0.00 0.00 0.00 58 1016.5
20260831210509 90 215 3.0 11.0 0.00 0.00 0.00 58 1016.5
20260831210020 89 200 4.0 11.0 0.00 0.00 0.00 59 1016.5
20260831205511 89 195 5.0 10.0 0.00 0.00 0.00 57 1016.5
20260831205013 89 209 3.0 9.0 0.00 0.00 0.00 62 1016.5
20260831204517 89 198 5.0 10.0 0.00 0.00 0.00 60 1016.7
20260831204011 89 203 6.0 10.0 0.00 0.00 0.00 59 1016.6
20260831203509 88 200 3.0 7.0 0.00 0.00 0.00 62 1016.6
20260831203027 87 244 4.0 8.0 0.00 0.00 0.00 64 1016.6
20260831202503 88 199 4.0 12.0 0.00 0.00 0.00 63 1016.4
20260831202003 88 187 5.0 12.0 0.00 0.00 0.00 64 1016.3
20260831201512 87 281 6.0 10.0 0.00 0.00 0.00 65 1016.4
20260831201004 86 190 4.0 10.0 0.00 0.00 0.00 65 1016.7
20260831200504 86 211 4.0 8.0 0.00 0.00 0.00 66 1016.7
20260831200009 86 242 4.0 7.0 0.00 0.00 0.00 70 1016.7
20260831195507 85 167 2.0 5.0 0.00 0.00 0.00 71 1017.3
20260831195007 84 209 1.0 5.0 0.00 0.00 0.00 71 1017.7
20260831194523 84 211 2.0 7.0 0.00 0.00 0.00 69 1017.8
20260831194009 84 260 2.0 7.0 0.00 0.00 0.00 70 1017.8
20260831193510 84 157 3.0 7.0 0.00 0.00 0.00 71 1017.8
20260831193028 83 227 3.0 7.0 0.00 0.00 0.00 71 1017.9
20260831192514 83 217 3.0 7.0 0.00 0.00 0.00 72 1017.8
20260831192014 83 213 5.0 7.0 0.00 0.00 0.00 70 1017.9
20260831191505 83 223 3.0 5.0 0.00 0.00 0.00 71 1018.0
20260831191008 83 209 3.0 5.0 0.00 0.00 0.00 70 1018.1
20260831190507 83 206 2.0 5.0 0.00 0.00 0.00 71 1018.2
20260831190016 83 200 2.0 5.0 0.00 0.00 0.00 69 1018.2
20260831185506 83 200 3.0 5.0 0.00 0.00 0.00 68 1018.4
20260831185006 83 203 3.0 6.0 0.00 0.00 0.00 67 1018.6
20260831184512 84 215 1.0 7.0 0.00 0.00 0.00 68 1018.7
20260831184010 84 200 4.0 8.0 0.00 0.00 0.00 66 1018.6
20260831183509 85 175 4.0 8.0 0.00 0.00 0.00 64 1018.6
20260831183021 85 231 2.0 5.0 0.00 0.00 0.00 63 1019.0
20260831182511 86 309 2.0 6.0 0.00 0.00 0.00 63 1019.1
20260831182012 86 269 2.0 6.0 0.00 0.00 0.00 64 1019.1
20260831181529 86 204 2.0 8.0 0.00 0.00 0.00 64 1019.1
20260831181013 86 324 2.0 8.0 0.00 0.00 0.00 63 1019.1
20260831180503 85 302 2.0 6.0 0.00 0.00 0.00 61 1019.1
20260831180012 85 194 2.0 6.0 0.00 0.00 0.00 63 1019.2
20260831175505 85 247 3.0 6.0 0.00 0.00 0.00 64 1019.1
20260831175005 85 218 2.0 6.0 0.00 0.00 0.00 69 1019.1
20260831174510 85 214 2.0 7.0 0.00 0.00 0.00 68 1019.1
20260831174006 84 218 2.0 7.0 0.00 0.00 0.00 68 1019.1
20260831173508 84 219 2.0 6.0 0.00 0.00 0.00 67 1019.2
20260831173017 84 292 2.0 6.0 0.00 0.00 0.00 69 1019.3
20260831172510 83 293 2.0 4.0 0.00 0.00 0.00 71 1019.4
20260831172011 83 241 2.0 5.0 0.00 0.00 0.00 71 1019.4
20260831171524 83 200 1.0 5.0 0.00 0.00 0.00 72 1019.5
20260831171013 83 219 3.0 6.0 0.00 0.00 0.00 70 1019.5
20260831170515 83 237 1.0 6.0 0.00 0.00 0.00 70 1019.5
20260831170033 83 232 3.0 8.0 0.00 0.00 0.00 72 1019.5
20260831165503 83 217 3.0 8.0 0.00 0.00 0.00 70 1019.5
20260831165003 83 225 2.0 7.0 0.00 0.00 0.00 74 1019.5
20260831164517 82 235 2.0 7.0 0.00 0.00 0.00 75 1019.5
20260831164002 82 211 2.0 6.0 0.00 0.00 0.00 75 1019.5
20260831163506 82 196 3.0 6.0 0.00 0.00 0.00 74 1019.5
20260831163018 82 200 2.0 6.0 0.00 0.00 0.00 75 1019.3
20260831162513 82 169 3.0 6.0 0.00 0.00 0.00 75 1019.4
20260831162009 82 236 2.0 6.0 0.00 0.00 0.00 75 1019.4
20260831161523 82 252 2.0 7.0 0.00 0.00 0.00 76 1019.4
20260831161010 81 227 3.0 7.0 0.00 0.00 0.00 77 1019.4
20260831160512 81 202 3.0 5.0 0.00 0.00 0.00 77 1019.3
20260831160026 81 210 2.0 5.0 0.00 0.00 0.00 78 1019.4
20260831155516 80 185 2.0 5.0 0.00 0.00 0.00 78 1019.5
20260831155016 80 155 2.0 5.0 0.00 0.00 0.00 77 1019.5
20260831154518 80 210 2.0 6.0 0.00 0.00 0.00 77 1019.4
20260831154002 80 211 3.0 6.0 0.00 0.00 0.00 77 1019.4
20260831153505 80 192 3.0 4.0 0.00 0.00 0.00 78 1019.3
20260831153012 80 202 2.0 5.0 0.00 0.00 0.00 79 1019.4
20260831152509 80 218 2.0 7.0 0.00 0.00 0.00 77 1019.4
20260831152007 80 273 1.0 7.0 0.00 0.00 0.00 76 1019.4
20260831151520 80 199 3.0 6.0 0.00 0.00 0.00 76 1019.3
20260831151009 80 185 4.0 6.0 0.00 0.00 0.00 75 1019.3
20260831150511 80 212 4.0 6.0 0.00 0.00 0.00 75 1019.3
20260831150027 80 234 2.0 9.0 0.00 0.00 0.00 76 1019.3
20260831145515 80 215 3.0 9.0 0.00 0.00 0.00 76 1019.2
20260831145014 79 242 3.0 6.0 0.00 0.00 0.00 76 1019.2
20260831144531 79 191 3.0 7.0 0.00 0.00 0.00 76 1019.2
20260831144012 79 225 2.0 7.0 0.00 0.00 0.00 76 1019.2
20260831143507 79 219 2.0 6.0 0.00 0.00 0.00 77 1019.2
20260831143015 79 192 3.0 6.0 0.00 0.00 0.00 77 1019.1
20260831142504 79 202 3.0 6.0 0.00 0.00 0.00 77 1019.0
20260831142006 79 254 3.0 5.0 0.00 0.00 0.00 77 1019.1
20260831141517 79 193 2.0 7.0 0.00 0.00 0.00 77 1019.0
20260831141008 78 184 4.0 7.0 0.00 0.00 0.00 76 1018.9
20260831140514 78 194 3.0 6.0 0.00 0.00 0.00 76 1018.9
20260831140033 78 215 3.0 6.0 0.00 0.00 0.00 78 1018.9
20260831135513 78 101 2.0 4.0 0.00 0.00 0.00 76 1018.9
20260831135015 77 182 2.0 5.0 0.00 0.00 0.00 77 1018.9
20260831134528 77 214 2.0 5.0 0.00 0.00 0.00 76 1018.9
20260831134015 77 211 2.0 5.0 0.00 0.00 0.00 76 1018.9
20260831133513 77 227 3.0 5.0 0.00 0.00 0.00 76 1018.9
20260831133034 77 190 3.0 7.0 0.00 0.00 0.00 75 1019.0
20260831132505 77 241 3.0 7.0 0.00 0.00 0.00 75 1019.0
20260831132006 77 205 3.0 6.0 0.00 0.00 0.00 75 1019.0
20260831131514 77 233 3.0 5.0 0.00 0.00 0.00 76 1018.9
20260831131009 76 226 2.0 5.0 0.00 0.00 0.00 76 1018.8
20260831130510 76 212 3.0 6.0 0.00 0.00 0.00 76 1018.8
20260831130023 76 194 2.0 6.0 0.00 0.00 0.00 77 1018.7
20260831125512 75 211 2.0 4.0 0.00 0.00 0.00 80 1018.7
20260831125013 74 195 2.0 4.0 0.00 0.00 0.00 81 1018.7
20260831124527 73 204 2.0 3.0 0.00 0.00 0.00 81 1018.7
20260831124015 73 197 2.0 4.0 0.00 0.00 0.00 81 1018.8
20260831123515 73 210 2.0 4.0 0.00 0.00 0.00 81 1018.7
20260831123030 73 183 2.0 4.0 0.00 0.00 0.00 81 1018.7
20260831122521 73 207 2.0 3.0 0.00 0.00 0.00 81 1018.7
20260831122015 73 193 1.0 4.0 0.00 0.00 0.00 82 1018.7
20260831121512 72 165 2.0 5.0 0.00 0.00 0.00 82 1018.6
20260831121006 72 203 2.0 5.0 0.00 0.00 0.00 82 1018.6
20260831120508 72 171 1.0 5.0 0.00 0.00 0.00 83 1018.7
20260831120018 72 188 2.0 4.0 0.00 0.00 0.00 83 1018.6
20260831115509 71 178 1.0 4.0 0.00 0.00 0.00 83 1018.6
20260831115012 71 198 1.0 4.0 0.00 0.00 0.00 83 1018.5
20260831114531 71 191 1.0 4.0 0.00 0.00 0.00 83 1018.5
20260831114013 71 198 1.0 3.0 0.00 0.00 0.00 83 1018.5
20260831113518 71 202 1.0 5.0 0.00 0.00 0.00 83 1018.5
20260831113030 71 200 2.0 5.0 0.00 0.00 0.00 83 1018.5
20260831112517 71 200 1.0 5.0 0.00 0.00 0.00 83 1018.6
20260831112017 71 205 2.0 5.0 0.00 0.00 0.00 83 1018.6
20260831111533 71 194 1.0 3.0 0.00 0.00 0.00 83 1018.5
20260831111015 71 185 1.0 3.0 0.00 0.00 0.00 83 1018.4
20260831110510 71 208 2.0 3.0 0.00 0.00 0.00 83 1018.5
20260831110014 72 191 2.0 3.0 0.00 0.00 0.00 83 1018.5
20260831105510 72 200 1.0 2.0 0.00 0.00 0.00 83 1018.4
20260831105010 72 199 1.0 2.0 0.00 0.00 0.00 83 1018.4
20260831104526 72 207 1.0 3.0 0.00 0.00 0.00 83 1018.4
20260831104013 72 202 1.0 3.0 0.00 0.00 0.00 83 1018.4
20260831103513 72 209 1.0 3.0 0.00 0.00 0.00 83 1018.2
20260831103027 71 186 2.0 3.0 0.00 0.00 0.00 84 1018.2
20260831102513 71 202 0.0 2.0 0.00 0.00 0.00 84 1018.2
20260831102017 71 198 0.0 2.0 0.00 0.00 0.00 85 1018.2
20260831101532 71 198 0.0 2.0 0.00 0.00 0.00 85 1018.1
20260831101017 71 198 0.0 2.0 0.00 0.00 0.00 85 1018.1
20260831100517 71 198 1.0 3.0 0.00 0.00 0.00 85 1018.0
20260831100037 71 198 0.0 3.0 0.00 0.00 0.00 85 1018.0
20260831095504 71 184 0.0 2.0 0.00 0.00 0.00 85 1017.9
20260831095009 71 178 0.0 2.0 0.00 0.00 0.00 85 1017.8
20260831094518 71 215 0.0 2.0 0.00 0.00 0.00 85 1017.9
20260831094011 71 215 0.0 2.0 0.00 0.00 0.00 85 1017.9
20260831093510 71 215 0.0 2.0 0.00 0.00 0.00 85 1018.0
20260831093031 71 215 0.0 2.0 0.00 0.00 0.00 85 1018.1
20260831092516 71 215 0.0 2.0 0.00 0.00 0.00 85 1018.0
20260831092013 71 213 0.0 2.0 0.00 0.00 0.00 85 1018.0
20260831091533 71 211 1.0 2.0 0.00 0.00 0.00 85 1018.0
20260831091014 71 211 0.0 2.0 0.00 0.00 0.00 85 1018.0
20260831090518 71 211 1.0 2.0 0.00 0.00 0.00 85 1018.1
20260831090034 71 192 1.0 2.0 0.00 0.00 0.00 85 1018.1
20260831085519 71 157 0.0 2.0 0.00 0.00 0.00 84 1018.1
20260831085015 72 157 0.0 2.0 0.00 0.00 0.00 85 1018.1
20260831084524 72 157 0.0 2.0 0.00 0.00 0.00 84 1018.1
20260831084009 72 137 0.0 2.0 0.00 0.00 0.00 84 1018.1
20260831083512 72 137 0.0 2.0 0.00 0.00 0.00 84 1018.1
20260831083003 71 137 1.0 2.0 0.00 0.00 0.00 85 1018.1
20260831082503 71 137 0.0 1.0 0.00 0.00 0.00 85 1018.1
20260831082003 71 137 0.0 2.0 0.00 0.00 0.00 86 1018.2
20260831081504 71 137 0.0 2.0 0.00 0.00 0.00 86 1018.1
20260831081004 71 137 0.0 0.0 0.00 0.00 0.00 86 1018.1
20260831080503 71 137 0.0 0.0 0.00 0.00 0.00 85 1018.1
20260831080007 72 137 0.0 0.0 0.00 0.00 0.00 85 1018.0
20260831075505 72 137 0.0 0.0 0.00 0.00 0.00 85 1017.9
20260831075005 72 137 0.0 2.0 0.00 0.00 0.00 84 1018.0
20260831074515 72 137 0.0 2.0 0.00 0.00 0.00 84 1018.0
20260831074009 72 137 0.0 2.0 0.00 0.00 0.00 83 1018.0
20260831073508 72 137 0.0 2.0 0.00 0.00 0.00 83 1018.1
20260831073023 72 137 1.0 2.0 0.00 0.00 0.00 82 1018.1
20260831072511 72 137 1.0 2.0 0.00 0.00 0.00 82 1018.0
20260831072004 72 137 1.0 3.0 0.00 0.00 0.00 82 1018.0
20260831071505 72 137 2.0 3.0 0.00 0.00 0.00 83 1018.0
20260831071002 72 139 2.0 3.0 0.00 0.00 0.00 83 1018.0
20260831070503 72 136 1.0 3.0 0.00 0.00 0.00 83 1018.0
20260831070008 72 142 2.0 3.0 0.00 0.00 0.00 83 1017.9
20260831065505 72 139 2.0 3.0 0.00 0.00 0.00 83 1018.0
20260831065004 72 139 1.0 3.0 0.00 0.00 0.00 83 1018.1
20260831064513 72 139 2.0 3.0 0.00 0.00 0.00 82 1018.1
20260831064007 72 139 1.0 3.0 0.00 0.00 0.00 82 1018.3
20260831063508 73 139 1.0 4.0 0.00 0.00 0.00 81 1018.3
20260831063018 73 137 2.0 4.0 0.00 0.00 0.00 81 1018.3
20260831062512 73 138 2.0 3.0 0.00 0.00 0.00 81 1018.4
20260831062011 73 139 2.0 3.0 0.00 0.00 0.00 81 1018.5
20260831061523 73 147 2.0 3.0 0.00 0.00 0.00 81 1018.5
20260831061004 73 141 2.0 3.0 0.00 0.00 0.00 81 1018.5
20260831060503 73 135 1.0 3.0 0.00 0.00 0.00 81 1018.5
20260831060005 73 140 1.0 2.0 0.00 0.00 0.00 80 1018.4
20260831055505 73 145 1.0 2.0 0.00 0.00 0.00 81 1018.5
20260831055003 73 145 1.0 2.0 0.00 0.00 0.00 81 1018.5
20260831054511 73 157 1.0 3.0 0.00 0.00 0.00 80 1018.5
20260831054004 73 157 1.0 3.0 0.00 0.00 0.00 81 1018.4
20260831053508 73 140 2.0 4.0 0.00 0.00 0.00 81 1018.5
20260831053014 73 134 2.0 4.0 0.00 0.00 0.00 81 1018.5
20260831052508 73 134 3.0 3.0 0.00 0.00 0.00 81 1018.5
20260831052011 73 140 2.0 3.0 0.00 0.00 0.00 81 1018.5
20260831051535 73 139 2.0 4.0 0.00 0.00 0.00 81 1018.5
20260831051013 73 136 3.0 4.0 0.00 0.00 0.00 81 1018.4
20260831050514 73 140 3.0 4.0 0.00 0.00 0.00 81 1018.4
20260831050005 73 139 2.0 3.0 0.00 0.00 0.00 82 1018.4
20260831045507 73 139 2.0 2.0 0.00 0.00 0.00 81 1018.5
20260831045003 73 144 1.0 2.0 0.00 0.00 0.00 82 1018.5
20260831044506 73 137 1.0 3.0 0.00 0.00 0.00 81 1018.5
20260831044005 73 137 2.0 3.0 0.00 0.00 0.00 82 1018.5
20260831043502 73 140 2.0 3.0 0.00 0.00 0.00 82 1018.3
20260831043016 73 137 2.0 3.0 0.00 0.00 0.00 82 1018.3
20260831042511 73 140 2.0 3.0 0.00 0.00 0.00 82 1018.3
20260831042011 73 153 1.0 3.0 0.00 0.00 0.00 82 1018.2
20260831041523 73 179 0.0 2.0 0.00 0.00 0.00 83 1018.2
20260831041013 73 179 1.0 1.0 0.00 0.00 0.00 83 1018.1
20260831040514 73 189 0.0 2.0 0.00 0.00 0.00 83 1018.2
20260831040028 73 189 0.0 2.0 0.00 0.00 0.00 82 1018.1
20260831035516 73 189 0.0 3.0 0.00 0.00 0.00 82 1018.1
20260831035005 73 147 2.0 4.0 0.00 0.00 0.00 82 1018.0
20260831034507 73 200 1.0 4.0 0.00 0.00 0.00 83 1018.2
20260831034005 73 190 1.0 3.0 0.00 0.00 0.00 83 1018.1
20260831033505 73 176 1.0 2.0 0.00 0.00 0.00 83 1018.1
20260831033017 73 171 1.0 4.0 0.00 0.00 0.00 83 1018.2